{"data":{"norad_id":67604,"epoch":"2026-05-25T03:46:04.190016Z","epoch_age_seconds":64566,"freshness":"FRESH","line1":"1 67604U 26018R   26145.15699294  .00013613  00000+0  42322-3 0  9992","line2":"2 67604  97.2848 210.2926 0000533  49.5176 310.6113 15.33444988 19057","mean_motion":15.33444988,"eccentricity":5.33e-5,"inclination_deg":97.2848,"raan_deg":210.2926,"arg_perigee_deg":49.5176,"mean_anomaly_deg":310.6113,"bstar":0.00042322,"rev_number":1905,"period_min":93.906205391699,"perigee_km":465.17844202649,"apogee_km":465.90797833689,"semimajor_km":6843.6802101817,"source":"CELESTRAK","updated_at":"2026-05-25T13:38:21.646432Z"}}